Location: East Horndon
(51.5667°N, 0.3500°E)
Time: 11:45:18
(UTC+00:00)

Iridium 4 Rocket - Pass Details

Date: 08 November 2025
Orbit: 579 x 888 km, 86.9° (Epoch: 10 December)

Event Time Altitude Azimuth Distance (km) Brightness Sun altitude
Rises 06:03:49 0° 347° (NNW) 2,974 6.3 -9.7°
Reaches altitude 10° 06:06:27 10° 334° (NNW) 2,014 5.3 -9.3°
Maximum altitude 06:09:57 24° 281° (W) 1,279 4.1 -8.8°
Drops below altitude 10° 06:13:17 10° 227° (SW) 1,916 5.3 -8.3°
Sets 06:15:44 0° 213° (SSW) 2,795 6.3 -7.9°
